CW7997 Bargteheide DE current weather conditions

sailwx.info

Wind from 281

Air temperature 17.2° C
Dewpoint 15.0° C

Last reported at 2019-Aug-24 23:52 UTC.
Time now 2019-Aug-25 00:50 UTC

Location: N 53°44' E 010°15'.
View on Google Maps.

See reports from other nearby stations

  
Tides and Currents Weather Stations Pressure Air Temp Water Temp Dewpoint Dewpoint Depression Visibility Wind Speed Wind Dir Waves Ship Positions
date/time (UTC)wind fromknots sea level pressurealtimeterstation pressurevisibilityair tempwater tempwave heightnotes
2019-Aug-24 23:52 281 17.2
2019-Aug-24 23:07 282 17.8
2019-Aug-24 22:37 279 17.8
2019-Aug-24 22:22 280 17.8
2019-Aug-24 22:07 279 18.3
2019-Aug-24 21:52 279 18.3
2019-Aug-24 21:22 281 18.3
2019-Aug-24 21:07 337 18.9
2019-Aug-24 20:52 337 0 gusting 1 18.9
2019-Aug-24 20:22 333 0 gusting 4 19.4
2019-Aug-24 19:22 321 0 gusting 3 20.6
2019-Aug-24 19:07 323 0 gusting 2 20.6
2019-Aug-24 18:52 313 0 gusting 2 21.1
2019-Aug-24 18:07 327 1 gusting 3 22.2
2019-Aug-24 16:37 299 0 gusting 4 25.0
2019-Aug-24 16:22 308 1 gusting 4 25.6
2019-Aug-24 16:07 275 2 gusting 5 25.6
2019-Aug-24 15:22 207 0 gusting 5 26.7
2019-Aug-24 14:52 291 2 gusting 4 27.2
2019-Aug-24 14:22 279 1 gusting 4 27.8
2019-Aug-24 13:52 317 2 gusting 6 28.3
2019-Aug-24 13:37 319 1 gusting 7 28.3
2019-Aug-24 12:07 182 2 gusting 5 27.8
2019-Aug-24 11:52 333 0 gusting 6 27.8
2019-Aug-24 11:22 174 2 gusting 4 27.2
2019-Aug-24 11:07 187 0 gusting 3 26.7
2019-Aug-24 10:52 187 0 gusting 6 26.1
2019-Aug-24 10:37 174 0 gusting 5 26.1
2019-Aug-24 09:52 184 0 gusting 4 25.0
2019-Aug-24 09:37 239 0 gusting 6 24.4
2019-Aug-24 09:07 246 0 gusting 5 23.9
2019-Aug-24 08:07 225 21.7
2019-Aug-24 07:07 182 1 gusting 3 18.9
2019-Aug-24 06:52 330 0 gusting 5 18.3
2019-Aug-24 06:22 171 0 gusting 3 16.7
2019-Aug-24 06:07 233 16.1
2019-Aug-24 05:37 196 0 gusting 1 15.0
2019-Aug-24 05:22 323 15.0
2019-Aug-24 05:07 332 14.4
2019-Aug-24 04:52 332 14.4
2019-Aug-24 04:37 332 14.4
2019-Aug-24 04:22 332 14.4
2019-Aug-24 04:07 332 14.4
2019-Aug-24 03:37 332 14.4
2019-Aug-24 03:22 332 14.4
2019-Aug-24 03:07 332 15.0
2019-Aug-24 02:22 332 14.4
2019-Aug-24 01:37 332 14.4
2019-Aug-24 01:07 332 15.0
2019-Aug-24 00:37 332 15.0
2019-Aug-24 00:22 332 15.0
2019-Aug-24 00:07 332 15.6
2019-Aug-23 23:37 332 15.0
2019-Aug-23 23:07 332 15.6
2019-Aug-23 22:52 332 15.6
2019-Aug-23 22:37 332 15.6
2019-Aug-23 22:07 332 16.1
2019-Aug-23 21:52 332 16.1
2019-Aug-23 21:07 333 16.7
2019-Aug-23 20:52 332 16.7
2019-Aug-23 20:37 332 17.2
2019-Aug-23 20:22 333 17.8
2019-Aug-23 20:07 332 17.8
2019-Aug-23 19:52 332 18.3
2019-Aug-23 19:22 332 19.4
2019-Aug-23 19:07 333 20.0
2019-Aug-23 18:07 332 0 gusting 1 22.2
2019-Aug-23 17:37 332 0 gusting 1 23.3
2019-Aug-23 16:52 320 24.4
2019-Aug-23 16:37 330 1 gusting 2 24.4
2019-Aug-23 16:22 300 0 gusting 2 24.4
2019-Aug-23 15:22 333 1 gusting 3 25.0
2019-Aug-23 15:07 325 1 gusting 4 25.6
2019-Aug-23 14:52 319 1 gusting 3 25.6
2019-Aug-23 14:22 344 2 gusting 5 25.6
2019-Aug-23 13:37 216 0 gusting 3 25.6
2019-Aug-23 13:22 325 1 gusting 6 25.6
2019-Aug-23 13:07 315 2 gusting 5 25.6
2019-Aug-23 12:52 344 1 gusting 5 25.6
2019-Aug-23 12:22 259 1 gusting 3 25.6
2019-Aug-23 12:07 318 2 gusting 3 25.6
2019-Aug-23 11:52 156 0 gusting 4 25.6
2019-Aug-23 11:22 333 0 gusting 3 25.0
2019-Aug-23 11:07 315 1 gusting 6 25.0
2019-Aug-23 10:52 310 2 gusting 4 25.0
2019-Aug-23 10:37 287 1 gusting 6 24.4
2019-Aug-23 10:07 317 1 gusting 3 23.9
2019-Aug-23 09:52 329 0 gusting 2 23.9
2019-Aug-23 09:37 286 1 gusting 3 23.9
2019-Aug-23 08:52 310 0 gusting 2 23.3
2019-Aug-23 08:22 314 1 gusting 3 22.2
2019-Aug-23 08:07 360 0 gusting 2 21.7
2019-Aug-23 07:52 113 0 gusting 2 21.1
2019-Aug-23 06:37 317 15.0
2019-Aug-23 06:07 317 12.8
2019-Aug-23 05:52 317 12.2
2019-Aug-23 05:37 317 12.2
2019-Aug-23 05:07 317 11.7
2019-Aug-23 04:37 317 11.7
2019-Aug-23 04:22 317 11.7
2019-Aug-23 03:22 317 11.7
2019-Aug-23 03:07 317 11.7
2019-Aug-23 02:52 317 11.7
2019-Aug-23 02:37 317 11.7
2019-Aug-23 01:52 317 12.2
2019-Aug-23 01:37 317 12.2
2019-Aug-23 00:37 317 12.8
2019-Aug-23 00:22 317 12.8
2019-Aug-23 00:07 317 13.3